Time,TemperatureF,DewpointF,PressureIn,WindDirection,WindDirectionDegrees,WindSpeedMPH,WindSpeedGustMPH,Humidity,HourlyPrecipIn,Conditions,Clouds,dailyrainin,SoftwareType,DateUTC
2013-01-30 00:32:00,4.0,-99.9,-100.00,North,11,2.0,2.0,-999,-99.99,,,-99.99,,2013-01-30 07:32:00,
2013-01-30 01:00:00,6.0,-99.9,-100.00,WSW,243,2.0,3.0,-999,-99.99,,,-99.99,,2013-01-30 08:00:00,
2013-01-30 01:32:00,6.0,-99.9,-100.00,WSW,243,2.0,3.0,-999,-99.99,,,-99.99,,2013-01-30 08:32:00,
2013-01-30 01:42:00,6.0,-99.9,-100.00,WSW,243,2.0,3.0,-999,-99.99,,,-99.99,,2013-01-30 08:42:00,
2013-01-30 01:52:00,6.0,-99.9,-100.00,WSW,243,2.0,3.0,-999,-99.99,,,-99.99,,2013-01-30 08:52:00,
2013-01-30 02:00:00,8.0,-99.9,-100.00,SSW,205,2.0,2.0,-999,-99.99,,,-99.99,,2013-01-30 09:00:00,
2013-01-30 02:32:00,8.0,-99.9,-100.00,SSW,205,2.0,2.0,-999,-99.99,,,-99.99,,2013-01-30 09:32:00,
2013-01-30 02:42:00,8.0,-99.9,-100.00,SSW,205,2.0,2.0,-999,-99.99,,,-99.99,,2013-01-30 09:42:00,
2013-01-30 02:52:00,8.0,-99.9,-100.00,SSW,205,2.0,2.0,-999,-99.99,,,-99.99,,2013-01-30 09:52:00,
2013-01-30 04:00:00,8.0,-99.9,-100.00,NW,309,3.0,7.0,-999,-99.99,,,-99.99,,2013-01-30 11:00:00,
2013-01-30 04:33:00,8.0,-99.9,-100.00,NW,309,3.0,7.0,-999,-99.99,,,-99.99,,2013-01-30 11:33:00,
2013-01-30 04:42:00,8.0,-99.9,-100.00,NW,309,3.0,7.0,-999,-99.99,,,-99.99,,2013-01-30 11:42:00,
2013-01-30 04:52:00,8.0,-99.9,-100.00,NW,309,3.0,7.0,-999,-99.99,,,-99.99,,2013-01-30 11:52:00,
2013-01-30 05:00:00,10.0,-99.9,-100.00,SW,226,3.0,4.0,-999,-99.99,,,-99.99,,2013-01-30 12:00:00,
2013-01-30 05:33:00,10.0,-99.9,-100.00,SW,226,3.0,4.0,-999,-99.99,,,-99.99,,2013-01-30 12:33:00,
2013-01-30 05:43:00,10.0,-99.9,-100.00,SW,226,3.0,4.0,-999,-99.99,,,-99.99,,2013-01-30 12:43:00,
2013-01-30 06:00:00,9.0,-99.9,-100.00,WNW,286,1.0,3.0,-999,-99.99,,,-99.99,,2013-01-30 13:00:00,
2013-01-30 06:33:00,9.0,-99.9,-100.00,WNW,286,1.0,3.0,-999,-99.99,,,-99.99,,2013-01-30 13:33:00,
2013-01-30 06:43:00,9.0,-99.9,-100.00,WNW,286,1.0,3.0,-999,-99.99,,,-99.99,,2013-01-30 13:43:00,
2013-01-30 06:53:00,9.0,-99.9,-100.00,WNW,286,1.0,3.0,-999,-99.99,,,-99.99,,2013-01-30 13:53:00,
2013-01-30 07:00:00,11.0,-99.9,-100.00,North,355,3.0,4.0,-999,-99.99,,,-99.99,,2013-01-30 14:00:00,
2013-01-30 07:33:00,11.0,-99.9,-100.00,North,355,3.0,4.0,-999,-99.99,,,-99.99,,2013-01-30 14:33:00,
2013-01-30 07:43:00,11.0,-99.9,-100.00,North,355,3.0,4.0,-999,-99.99,,,-99.99,,2013-01-30 14:43:00,
2013-01-30 07:53:00,11.0,-99.9,-100.00,North,355,3.0,4.0,-999,-99.99,,,-99.99,,2013-01-30 14:53:00,
2013-01-30 08:00:00,11.0,-99.9,-100.00,West,271,1.0,2.0,-999,-99.99,,,-99.99,,2013-01-30 15:00:00,
2013-01-30 08:34:00,11.0,-99.9,-100.00,West,271,1.0,2.0,-999,-99.99,,,-99.99,,2013-01-30 15:34:00,
2013-01-30 08:43:00,11.0,-99.9,-100.00,West,271,1.0,2.0,-999,-99.99,,,-99.99,,2013-01-30 15:43:00,
2013-01-30 08:54:00,11.0,-99.9,-100.00,West,271,1.0,2.0,-999,-99.99,,,-99.99,,2013-01-30 15:54:00,
2013-01-30 09:00:00,13.0,-99.9,-100.00,SW,225,3.0,3.0,-999,-99.99,,,-99.99,,2013-01-30 16:00:00,
2013-01-30 09:33:00,13.0,-99.9,-100.00,SW,225,3.0,3.0,-999,-99.99,,,-99.99,,2013-01-30 16:33:00,
2013-01-30 09:42:00,13.0,-99.9,-100.00,SW,225,3.0,3.0,-999,-99.99,,,-99.99,,2013-01-30 16:42:00,
2013-01-30 09:53:00,13.0,-99.9,-100.00,SW,225,3.0,3.0,-999,-99.99,,,-99.99,,2013-01-30 16:53:00,
2013-01-30 10:00:00,15.0,-99.9,-100.00,ENE,67,3.0,4.0,-999,-99.99,,,-99.99,,2013-01-30 17:00:00,
2013-01-30 10:34:00,15.0,-99.9,-100.00,ENE,67,3.0,4.0,-999,-99.99,,,-99.99,,2013-01-30 17:34:00,
2013-01-30 10:43:00,15.0,-99.9,-100.00,ENE,67,3.0,4.0,-999,-99.99,,,-99.99,,2013-01-30 17:43:00,
2013-01-30 10:53:00,15.0,-99.9,-100.00,ENE,67,3.0,4.0,-999,-99.99,,,-99.99,,2013-01-30 17:53:00,
2013-01-30 11:00:00,18.0,-99.9,-100.00,WSW,239,3.0,4.0,-999,-99.99,,,-99.99,,2013-01-30 18:00:00,
2013-01-30 11:33:00,18.0,-99.9,-100.00,WSW,239,3.0,4.0,-999,-99.99,,,-99.99,,2013-01-30 18:33:00,
2013-01-30 11:43:00,18.0,-99.9,-100.00,WSW,239,3.0,4.0,-999,-99.99,,,-99.99,,2013-01-30 18:43:00,
2013-01-30 11:53:00,18.0,-99.9,-100.00,WSW,239,3.0,4.0,-999,-99.99,,,-99.99,,2013-01-30 18:53:00,
2013-01-30 12:00:00,28.0,-99.9,-100.00,North,2,1.0,2.0,-999,-99.99,,,-99.99,,2013-01-30 19:00:00,
2013-01-30 12:33:00,28.0,-99.9,-100.00,North,2,1.0,2.0,-999,-99.99,,,-99.99,,2013-01-30 19:33:00,
2013-01-30 12:44:00,28.0,-99.9,-100.00,North,2,1.0,2.0,-999,-99.99,,,-99.99,,2013-01-30 19:44:00,
2013-01-30 12:53:00,28.0,-99.9,-100.00,North,2,1.0,2.0,-999,-99.99,,,-99.99,,2013-01-30 19:53:00,
2013-01-30 13:00:00,26.0,-99.9,-100.00,NNW,346,2.0,3.0,-999,-99.99,,,-99.99,,2013-01-30 20:00:00,
2013-01-30 13:33:00,26.0,-99.9,-100.00,NNW,346,2.0,3.0,-999,-99.99,,,-99.99,,2013-01-30 20:33:00,
2013-01-30 13:42:00,26.0,-99.9,-100.00,NNW,346,2.0,3.0,-999,-99.99,,,-99.99,,2013-01-30 20:42:00,
2013-01-30 13:53:00,26.0,-99.9,-100.00,NNW,346,2.0,3.0,-999,-99.99,,,-99.99,,2013-01-30 20:53:00,
2013-01-30 14:00:00,23.0,-99.9,-100.00,NW,324,3.0,4.0,-999,-99.99,,,-99.99,,2013-01-30 21:00:00,
2013-01-30 14:32:00,23.0,-99.9,-100.00,NW,324,3.0,4.0,-999,-99.99,,,-99.99,,2013-01-30 21:32:00,
2013-01-30 14:43:00,23.0,-99.9,-100.00,NW,324,3.0,4.0,-999,-99.99,,,-99.99,,2013-01-30 21:43:00,
2013-01-30 14:53:00,23.0,-99.9,-100.00,NW,324,3.0,4.0,-999,-99.99,,,-99.99,,2013-01-30 21:53:00,
2013-01-30 15:00:00,23.0,-99.9,-100.00,NW,309,3.0,3.0,-999,-99.99,,,-99.99,,2013-01-30 22:00:00,
2013-01-30 15:33:00,23.0,-99.9,-100.00,NW,309,3.0,3.0,-999,-99.99,,,-99.99,,2013-01-30 22:33:00,
2013-01-30 15:43:00,23.0,-99.9,-100.00,NW,309,3.0,3.0,-999,-99.99,,,-99.99,,2013-01-30 22:43:00,
2013-01-30 15:53:00,23.0,-99.9,-100.00,NW,309,3.0,3.0,-999,-99.99,,,-99.99,,2013-01-30 22:53:00,
2013-01-30 16:00:00,23.0,-99.9,-100.00,WSW,239,2.0,3.0,-999,-99.99,,,-99.99,,2013-01-30 23:00:00,
2013-01-30 16:33:00,23.0,-99.9,-100.00,WSW,239,2.0,3.0,-999,-99.99,,,-99.99,,2013-01-30 23:33:00,
2013-01-30 16:43:00,23.0,-99.9,-100.00,WSW,239,2.0,3.0,-999,-99.99,,,-99.99,,2013-01-30 23:43:00,
2013-01-30 16:53:00,23.0,-99.9,-100.00,WSW,239,2.0,3.0,-999,-99.99,,,-99.99,,2013-01-30 23:53:00,
2013-01-30 17:00:00,22.0,-99.9,-100.00,NE,52,4.0,5.0,-999,-99.99,,,-99.99,,2013-01-31 00:00:00,
2013-01-30 17:32:00,22.0,-99.9,-100.00,NE,52,4.0,5.0,-999,-99.99,,,-99.99,,2013-01-31 00:32:00,
2013-01-30 17:43:00,22.0,-99.9,-100.00,NE,52,4.0,5.0,-999,-99.99,,,-99.99,,2013-01-31 00:43:00,
2013-01-30 17:53:00,22.0,-99.9,-100.00,NE,52,4.0,5.0,-999,-99.99,,,-99.99,,2013-01-31 00:53:00,
2013-01-30 18:00:00,22.0,-99.9,-100.00,NE,34,2.0,3.0,-999,-99.99,,,-99.99,,2013-01-31 01:00:00,
2013-01-30 18:32:00,22.0,-99.9,-100.00,NE,34,2.0,3.0,-999,-99.99,,,-99.99,,2013-01-31 01:32:00,
2013-01-30 18:42:00,22.0,-99.9,-100.00,NE,34,2.0,3.0,-999,-99.99,,,-99.99,,2013-01-31 01:42:00,
2013-01-30 18:53:00,22.0,-99.9,-100.00,NE,34,2.0,3.0,-999,-99.99,,,-99.99,,2013-01-31 01:53:00,
2013-01-30 19:00:00,21.0,-99.9,-100.00,NW,315,3.0,3.0,-999,-99.99,,,-99.99,,2013-01-31 02:00:00,
2013-01-30 19:32:00,21.0,-99.9,-100.00,NW,315,3.0,3.0,-999,-99.99,,,-99.99,,2013-01-31 02:32:00,
2013-01-30 19:42:00,21.0,-99.9,-100.00,NW,315,3.0,3.0,-999,-99.99,,,-99.99,,2013-01-31 02:42:00,
2013-01-30 19:52:00,21.0,-99.9,-100.00,NW,315,3.0,3.0,-999,-99.99,,,-99.99,,2013-01-31 02:52:00,
2013-01-30 20:00:00,22.0,-99.9,-100.00,SW,234,6.0,8.0,-999,-99.99,,,-99.99,,2013-01-31 03:00:00,
2013-01-30 20:33:00,22.0,-99.9,-100.00,SW,234,6.0,8.0,-999,-99.99,,,-99.99,,2013-01-31 03:33:00,
2013-01-30 20:42:00,22.0,-99.9,-100.00,SW,234,6.0,8.0,-999,-99.99,,,-99.99,,2013-01-31 03:42:00,
2013-01-30 20:52:00,22.0,-99.9,-100.00,SW,234,6.0,8.0,-999,-99.99,,,-99.99,,2013-01-31 03:52:00,
2013-01-30 21:00:00,23.0,-99.9,-100.00,SW,214,7.0,8.0,-999,-99.99,,,-99.99,,2013-01-31 04:00:00,
2013-01-30 21:32:00,23.0,-99.9,-100.00,SW,214,7.0,8.0,-999,-99.99,,,-99.99,,2013-01-31 04:32:00,
2013-01-30 21:42:00,23.0,-99.9,-100.00,SW,214,7.0,8.0,-999,-99.99,,,-99.99,,2013-01-31 04:42:00,
2013-01-30 21:52:00,23.0,-99.9,-100.00,SW,214,7.0,8.0,-999,-99.99,,,-99.99,,2013-01-31 04:52:00,
2013-01-30 22:00:00,23.0,-99.9,-100.00,ESE,117,0.0,0.0,-999,-99.99,,,-99.99,,2013-01-31 05:00:00,
2013-01-30 22:42:00,23.0,-99.9,-100.00,ESE,117,0.0,0.0,-999,-99.99,,,-99.99,,2013-01-31 05:42:00,
2013-01-30 22:52:00,23.0,-99.9,-100.00,ESE,117,0.0,0.0,-999,-99.99,,,-99.99,,2013-01-31 05:52:00,